1488902400.24,17528,10.0,72722.5,-8.25,-16.31,-19.03,0,*58
1488902401.49,17529,10.0,72724.0,-8.27,-16.65,-19.47,0,*5A
1488902402.7,17530,10.0,72722.5,-8.25,-16.89,-19.91,0,*59
1488902403.97,17531,10.0,72722.0,-8.27,-17.41,-20.39,0,*57
1488902405.18,17532,10.0,72726.0,-8.25,-17.73,-20.69,0,*52
1488902406.39,17533,10.0,72720.8,-8.25,-18.07,-21.13,0,*53
1488902407.62,17534,10.0,72726.0,-8.25,-18.21,-21.33,0,*52
1488902408.88,17535,10.0,72724.3,-8.25,-18.31,-21.53,0,*54
1488902410.14,17536,10.0,72722.0,-8.27,-18.55,-21.63,0,*54
1488902411.4,17537,10.0,72724.8,-8.27,-18.69,-21.83,0,*54
1488902412.61,17538,10.0,72722.0,-8.25,-18.73,-21.93,0,*53
1488902413.86,17539,10.0,72720.0,-8.27,-18.89,-22.11,0,*5C
1488902415.1,17540,10.0,72722.5,-8.25,-19.13,-22.31,0,*50
1488902416.37,17541,10.0,72720.8,-8.27,-19.17,-22.47,0,*56
1488902417.61,17542,10.0,72722.8,-8.25,-19.37,-22.73,0,*52
1488902418.85,17543,10.0,72720.3,-8.25,-19.61,-22.87,0,*5B
1488902420.11,17544,10.0,72726.0,-8.27,-19.61,-23.09,0,*59
1488902421.35,17545,10.0,72726.0,-8.25,-19.91,-23.19,0,*54
1488902422.55,17546,10.0,72722.0,-8.25,-19.95,-23.39,0,*51
1488902423.81,17547,10.0,72724.8,-8.27,-20.25,-23.53,0,*5F
1488902425.05,17548,10.0,72722.8,-8.27,-20.29,-23.53,0,*5C
1488902426.28,17549,10.0,72720.5,-8.25,-20.39,-23.53,0,*5E
1488902427.53,17550,10.0,72722.8,-8.27,-20.25,-23.53,0,*59
1488902428.78,17551,10.0,72726.0,-8.27,-20.39,-23.69,0,*5C
1488902430.03,17552,10.0,72720.0,-8.27,-20.25,-23.53,0,*5B
1488902431.26,17553,10.0,72722.0,-8.27,-20.39,-24.05,0,*53
1488902432.54,17554,10.0,72724.0,-8.27,-20.53,-24.15,0,*59
1488902433.77,17555,10.0,72724.3,-8.27,-20.69,-24.35,0,*53
1488902435.02,17556,10.0,72726.8,-8.27,-20.69,-24.41,0,*53
1488902436.27,17557,10.0,72724.8,-8.27,-20.73,-24.41,0,*59
1488902437.55,17558,10.0,72722.3,-8.27,-20.83,-24.41,0,*59
1488902438.8,17559,10.0,72724.8,-8.27,-20.73,-24.41,0,*57
1488902440.02,17560,9.94,72718.5,-8.29,-20.89,-24.57,0,*51
1488902441.25,17561,10.0,72722.3,-8.29,-20.79,-24.47,0,*5E
1488902442.48,17562,10.0,72720.5,-8.33,-20.79,-24.57,0,*57
1488902443.69,17563,10.0,72722.0,-8.29,-20.63,-24.57,0,*56
1488902444.9,17564,10.0,72724.5,-8.29,-20.73,-24.61,0,*55
1488902446.13,17565,10.0,72726.0,-8.33,-20.63,-24.71,0,*5F
1488902447.37,17566,10.0,72722.8,-8.29,-20.49,-24.61,0,*5E
1488902448.64,17567,10.0,72724.0,-8.29,-20.49,-24.71,0,*5E
1488902449.87,17568,10.0,72726.0,-8.29,-20.49,-24.77,0,*57
1488902451.11,17569,10.0,72724.0,-8.33,-20.43,-24.87,0,*58
1488902452.34,17570,10.0,72724.0,-8.33,-20.49,-24.93,0,*5F
1488902453.55,17571,10.0,72726.8,-8.29,-20.73,-25.39,0,*5D
1488902454.79,17572,10.0,72726.0,-8.33,-21.33,-26.07,0,*5E
1488902456.02,17573,10.0,72726.8,-8.33,-21.67,-26.23,0,*58
1488902457.29,17574,10.0,72726.8,-8.33,-21.67,-25.55,0,*5D
1488902458.55,17575,10.0,72722.3,-8.29,-21.33,-24.87,0,*58
1488902459.8,17576,10.0,72724.3,-8.29,-20.79,-23.95,0,*50
1488902461.02,17577,10.0,72722.8,-8.33,-20.25,-22.93,0,*54
1488902462.26,17578,10.0,72726.3,-8.33,-19.71,-22.31,0,*58
1488902463.5,17579,10.0,72724.0,-8.33,-19.71,-22.17,0,*5D
1488902464.71,17580,10.0,72726.5,-8.29,-19.71,-22.27,0,*53
1488902465.96,17581,10.0,72724.5,-8.33,-19.71,-22.47,0,*5F
1488902467.19,17582,10.0,72724.3,-8.33,-19.85,-22.63,0,*51
1488902468.44,17583,10.0,72720.5,-8.33,-19.81,-22.77,0,*51
1488902469.7,17584,10.0,72724.5,-8.33,-19.85,-23.49,0,*5E
1488902470.91,17585,10.0,72726.0,-8.33,-20.93,-24.77,0,*58
1488902472.14,17586,10.0,72724.8,-8.33,-21.33,-24.93,0,*5A
1488902473.37,17587,10.0,72720.3,-8.35,-21.43,-24.61,0,*57
1488902474.63,17588,10.0,72726.3,-8.37,-21.27,-24.25,0,*58
1488902475.86,17589,10.0,72724.0,-8.37,-21.39,-24.11,0,*51
1488902477.11,17590,10.0,72724.3,-8.35,-21.47,-23.99,0,*55
1488902478.4,17591,10.0,72720.0,-8.35,-21.87,-23.99,0,*58
1488902479.66,17592,10.0,72720.8,-8.37,-21.87,-23.99,0,*59
1488902480.92,17593,10.0,72724.8,-8.37,-22.17,-23.99,0,*52
1488902482.14,17594,10.0,72726.3,-8.37,-22.41,-24.11,0,*51
1488902483.4,17595,10.0,72724.0,-8.35,-22.67,-23.69,0,*5E
1488902484.65,17596,10.0,72724.0,-8.37,-22.73,-23.65,0,*56
1488902485.9,17597,10.0,72722.3,-8.35,-23.13,-23.65,0,*52
1488902487.16,17598,10.0,72722.8,-8.37,-23.33,-23.65,0,*5D
1488902488.41,17599,10.0,72722.8,-8.37,-23.29,-23.29,0,*5F
1488902489.65,17600,10.0,72722.8,-8.37,-23.53,-23.13,0,*58
1488902490.89,17601,10.0,72720.5,-8.37,-23.29,-22.57,0,*55
1488902492.12,17602,10.0,72722.3,-8.37,-22.73,-22.37,0,*5E
1488902493.38,17603,10.0,72720.3,-8.37,-22.21,-22.17,0,*5A
1488902494.59,17604,10.0,72720.8,-8.37,-21.63,-22.03,0,*5D
1488902495.79,17605,10.0,72722.0,-8.37,-20.93,-21.63,0,*57
1488902497.03,17606,10.0,72720.0,-8.37,-20.53,-21.39,0,*57
1488902498.28,17607,10.0,72720.0,-8.37,-20.15,-20.99,0,*5F
1488902499.52,17608,10.0,72722.3,-8.39,-19.95,-21.13,0,*5F
1488902500.74,17609,10.0,72720.3,-8.39,-20.25,-21.63,0,*58
1488902502.0,17610,10.0,72720.3,-8.39,-20.69,-22.21,0,*5D
1488902503.24,17611,10.0,72718.5,-8.39,-20.89,-22.27,0,*54
1488902504.47,17612,10.0,72720.5,-8.39,-20.89,-22.11,0,*52
1488902505.72,17613,10.0,72722.0,-8.39,-20.69,-21.97,0,*50
1488902506.96,17614,10.0,72720.8,-8.41,-20.39,-21.83,0,*58
1488902508.19,17615,10.0,72720.8,-8.39,-20.25,-21.77,0,*50
1488902509.4,17616,10.0,72720.8,-8.41,-20.25,-21.93,0,*56
1488902510.65,17617,10.0,72720.5,-8.39,-20.39,-22.21,0,*5F
1488902511.92,17618,10.0,72720.3,-8.39,-20.69,-22.47,0,*55
1488902513.18,17619,10.0,72720.0,-8.41,-20.99,-22.47,0,*54
1488902514.41,17620,10.0,72720.0,-8.41,-21.27,-22.41,0,*5C
1488902515.65,17621,10.0,72722.0,-8.39,-21.93,-23.09,0,*50
1488902516.85,17622,10.0,72720.8,-8.41,-23.39,-24.51,0,*54
1488902518.08,17623,10.0,72722.8,-8.41,-23.85,-24.57,0,*54
1488902519.32,17624,10.0,72724.3,-8.41,-24.21,-24.57,0,*5A
1488902520.54,17625,10.0,72722.0,-8.41,-24.47,-24.47,0,*5A
1488902521.77,17626,10.0,72722.8,-8.41,-24.51,-23.99,0,*5A
1488902523.01,17627,10.0,72724.0,-8.41,-24.35,-23.85,0,*54
1488902524.27,17628,10.0,72722.3,-8.41,-24.21,-23.69,0,*5C
1488902525.51,17629,10.0,72720.5,-8.41,-24.15,-23.75,0,*57
1488902526.74,17630,10.0,72722.3,-8.41,-24.15,-24.05,0,*5F
1488902527.98,17631,10.0,72720.8,-8.41,-24.21,-24.51,0,*58
1488902529.21,17632,10.0,72720.0,-8.43,-24.35,-24.51,0,*5C
1488902530.47,17633,10.0,72722.5,-8.43,-24.35,-24.25,0,*5E
1488902531.75,17634,10.0,72720.8,-8.43,-23.95,-23.95,0,*58
1488902532.99,17635,9.94,72718.5,-8.43,-23.75,-23.75,0,*59
1488902534.23,17636,10.0,72720.3,-8.45,-23.65,-23.79,0,*51
1488902535.46,17637,10.0,72724.5,-8.45,-23.65,-23.79,0,*50
1488902536.68,17638,10.0,72722.8,-8.45,-23.79,-24.05,0,*5E
1488902537.96,17639,10.0,72720.5,-8.43,-23.95,-23.95,0,*55
1488902539.21,17640,10.0,72724.8,-8.43,-23.95,-23.79,0,*59
1488902540.48,17641,10.0,72724.5,-8.43,-24.25,-23.75,0,*58
1488902541.72,17642,10.0,72726.0,-8.43,-24.05,-23.43,0,*5C
1488902542.93,17643,10.0,72720.5,-8.45,-23.79,-23.39,0,*5A
1488902544.17,17644,10.0,72720.8,-8.45,-23.65,-23.13,0,*58
1488902545.41,17645,10.0,72726.5,-8.43,-23.43,-22.83,0,*53
1488902546.64,17646,10.0,72720.0,-8.43,-22.67,-22.27,0,*59
1488902547.85,17647,10.0,72720.5,-8.45,-22.11,-21.73,0,*5D
1488902549.09,17648,10.0,72720.3,-8.45,-21.33,-20.93,0,*5E
1488902550.31,17649,10.0,72720.0,-8.45,-20.59,-20.29,0,*53
1488902551.53,17650,10.0,72720.8,-8.45,-19.71,-19.71,0,*5C
1488902552.79,17651,10.0,72720.0,-8.45,-18.89,-19.23,0,*5C
1488902554.05,17652,10.0,72722.8,-8.45,-18.31,-18.89,0,*5D
1488902555.3,17653,10.0,72720.5,-8.45,-17.97,-18.65,0,*5D
1488902556.51,17654,10.0,72720.8,-8.45,-17.73,-18.45,0,*52
1488902557.75,17655,10.0,72724.5,-8.45,-17.55,-18.45,0,*57
1488902558.99,17656,10.0,72724.5,-8.45,-17.11,-18.11,0,*55
1488902560.21,17657,10.0,72720.8,-8.45,-16.79,-17.87,0,*5B
1488902561.44,17658,10.0,72722.3,-8.45,-16.59,-17.83,0,*52
1488902562.69,17659,10.0,72720.5,-8.43,-16.37,-17.55,0,*56
1488902563.93,17660,10.0,72720.5,-8.45,-16.03,-17.11,0,*5D
1488902565.2,17661,10.0,72724.0,-8.45,-15.89,-16.69,0,*53
1488902566.41,17662,10.0,72720.8,-8.45,-15.67,-16.45,0,*5E
1488902567.65,17663,10.0,72722.5,-8.45,-15.63,-16.31,0,*58
1488902568.89,17664,10.0,72724.0,-8.45,-15.35,-16.03,0,*5D
1488902570.15,17665,10.0,72720.0,-8.45,-15.21,-15.89,0,*58
1488902571.36,17666,10.0,72720.3,-8.45,-15.29,-16.03,0,*52
1488902572.58,17667,10.0,72726.5,-8.45,-15.15,-15.75,0,*5E
1488902573.82,17668,10.0,72722.8,-8.45,-15.07,-15.35,0,*56
1488902575.06,17669,10.0,72720.5,-8.45,-15.07,-15.35,0,*57
1488902576.3,17670,10.0,72720.5,-8.43,-15.15,-15.49,0,*51
1488902577.54,17671,10.0,72720.8,-8.45,-15.43,-15.95,0,*54
1488902578.78,17672,10.0,72724.3,-8.45,-15.57,-16.03,0,*5E
1488902580.01,17673,10.0,72720.8,-8.43,-15.67,-16.03,0,*5A
1488902581.25,17674,10.0,72722.8,-8.45,-15.75,-15.89,0,*59
1488902582.54,17675,10.0,72720.3,-8.43,-16.09,-16.17,0,*52
1488902583.76,17676,10.0,72724.3,-8.45,-16.37,-16.45,0,*5D
1488902585.0,17677,10.0,72724.5,-8.45,-16.79,-16.65,0,*54
1488902586.21,17678,10.0,72722.8,-8.45,-16.97,-16.79,0,*56
1488902587.46,17679,10.0,72720.0,-8.45,-17.07,-16.79,0,*5F
1488902588.69,17680,10.0,72720.0,-8.45,-16.93,-16.65,0,*58
1488902589.93,17681,10.0,72720.8,-8.45,-16.83,-16.65,0,*58
1488902591.17,17682,10.0,72722.8,-8.43,-16.79,-16.59,0,*57
1488902592.44,17683,10.0,72722.5,-8.45,-16.69,-16.65,0,*5E
1488902593.65,17684,10.0,72722.0,-8.45,-16.93,-16.93,0,*55
1488902594.92,17685,10.0,72720.8,-8.45,-17.07,-17.07,0,*54
1488902596.16,17686,10.0,72724.5,-8.45,-17.21,-16.97,0,*5B
1488902597.44,17687,10.0,72726.3,-8.45,-17.21,-17.07,0,*52
1488902598.71,17688,10.0,72722.0,-8.45,-17.41,-17.21,0,*5F
1488902599.96,17689,10.0,72720.3,-8.43,-17.49,-17.25,0,*54
1488902601.21,17690,10.0,72724.0,-8.45,-17.55,-17.35,0,*56
1488902602.45,17691,10.0,72724.0,-8.45,-17.55,-17.49,0,*5C
1488902603.66,17692,10.0,72724.0,-8.45,-17.73,-17.69,0,*59
1488902604.87,17693,10.0,72724.0,-8.45,-17.73,-17.73,0,*53
1488902606.12,17694,10.0,72724.8,-8.45,-18.01,-17.87,0,*55
1488902607.35,17695,10.0,72724.3,-8.45,-18.01,-17.73,0,*5F
1488902608.63,17696,10.0,72722.5,-8.45,-17.97,-17.59,0,*54
1488902609.84,17697,10.0,72722.8,-8.45,-17.87,-17.49,0,*55
1488902611.06,17698,10.0,72724.3,-8.45,-17.83,-17.35,0,*55
1488902612.28,17699,9.94,72718.5,-8.45,-17.73,-17.35,0,*5B
1488902613.57,17700,10.0,72724.0,-8.43,-17.55,-17.21,0,*5D
1488902614.84,17701,10.0,72726.8,-8.45,-17.41,-17.11,0,*5C
1488902616.1,17702,10.0,72724.0,-8.45,-17.25,-17.11,0,*5D
1488902617.39,17703,10.0,72726.5,-8.43,-17.21,-17.07,0,*59
1488902618.64,17704,10.0,72724.3,-8.45,-16.97,-17.21,0,*50
1488902619.88,17705,10.0,72722.0,-8.45,-16.97,-17.41,0,*57
1488902621.11,17706,10.0,72724.8,-8.45,-16.93,-17.25,0,*52
1488902622.33,17707,10.0,72722.5,-8.45,-16.83,-17.49,0,*58
1488902623.56,17708,9.94,72720.5,-8.43,-16.93,-17.83,0,*56
1488902624.8,17709,10.0,72722.3,-8.45,-16.83,-17.97,0,*55
1488902626.02,17710,10.0,72722.5,-8.45,-16.83,-18.17,0,*5A
1488902627.28,17711,9.94,72722.8,-8.45,-17.25,-18.93,0,*5A
1488902628.55,17712,10.0,72724.8,-8.45,-17.41,-19.23,0,*51
1488902629.78,17713,10.0,72720.8,-8.43,-17.73,-19.71,0,*50
1488902631.0,17714,10.0,72726.8,-8.45,-18.17,-19.95,0,*56
1488902632.24,17715,10.0,72720.8,-8.45,-18.31,-19.99,0,*5F
1488902633.49,17716,10.0,72722.8,-8.45,-18.59,-20.39,0,*52
1488902634.71,17717,10.0,72724.8,-8.45,-19.37,-21.47,0,*52
1488902635.92,17718,9.94,72722.0,-8.45,-19.47,-21.09,0,*50
1488902637.19,17719,10.0,72724.3,-8.45,-19.31,-21.53,0,*5F
1488902638.42,17720,10.0,72726.0,-8.45,-20.73,-23.65,0,*5E
1488902639.64,17721,10.0,72724.3,-8.45,-21.73,-24.51,0,*5E
1488902640.9,17722,9.94,72724.3,-8.47,-22.47,-24.57,0,*5D
1488902642.17,17723,10.0,72724.0,-8.47,-23.85,-25.61,0,*57
1488902643.43,17724,9.94,72722.0,-8.49,-23.65,-26.55,0,*54
1488902644.71,17725,10.0,72726.3,-8.47,-25.81,-28.09,0,*50
1488902645.97,17726,9.94,72724.0,-8.49,-26.29,-28.47,0,*56
1488902647.25,17727,10.0,72726.3,-8.47,-26.93,-29.13,0,*58
1488902648.51,17728,9.94,72722.8,-8.49,-27.39,-29.35,0,*5C
1488902649.72,17729,9.94,72724.0,-8.49,-27.29,-28.97,0,*55
1488902651.01,17730,10.0,72726.3,-8.51,-27.35,-28.63,0,*52
1488902652.27,17731,9.94,72720.5,-8.51,-27.45,-28.69,0,*5E
1488902653.47,17732,10.0,72722.0,-8.55,-27.03,-27.93,0,*51
1488902654.77,17733,10.0,72726.3,-8.51,-26.33,-27.99,0,*5C
1488902656.03,17734,10.0,72726.3,-8.51,-26.45,-28.05,0,*50
1488902657.29,17735,9.94,72722.0,-8.51,-27.45,-28.69,0,*5A
1488902658.51,17736,10.0,72722.8,-8.55,-27.51,-29.13,0,*54
1488902659.8,17737,10.0,72724.8,-8.51,-27.99,-29.89,0,*56
1488902661.02,17738,10.0,72724.3,-8.55,-29.61,-30.67,0,*5C
1488902662.26,17739,10.0,72726.0,-8.55,-29.89,-30.33,0,*5A
1488902663.51,17740,9.94,72722.0,-8.55,-29.45,-30.61,0,*53
1488902664.77,17741,9.94,72722.5,-8.55,-31.23,-32.63,0,*5B
1488902666.01,17742,10.0,72724.0,-8.55,-32.01,-33.31,0,*5D
1488902667.23,17743,10.0,72724.3,-8.59,-32.23,-33.27,0,*57
1488902668.49,17744,10.0,72726.3,-8.59,-32.45,-33.27,0,*50
1488902669.78,17745,9.94,72722.3,-8.61,-32.63,-33.31,0,*59
1488902671.04,17746,10.0,72722.0,-8.61,-32.51,-33.31,0,*5B
1488902672.33,17747,10.0,72720.0,-8.61,-32.63,-33.31,0,*5B
1488902673.62,17748,10.0,72722.3,-8.61,-32.07,-32.63,0,*50
1488902674.88,17749,10.0,72720.8,-8.63,-32.45,-33.31,0,*53
1488902676.14,17750,10.0,72720.8,-8.63,-32.85,-33.49,0,*58
1488902677.39,17751,10.0,72720.3,-8.63,-32.97,-33.73,0,*53
1488902678.62,17752,10.0,72716.0,-8.63,-33.03,-33.61,0,*5F
1488902679.88,17753,10.0,72716.5,-8.65,-32.85,-33.37,0,*54
1488902681.12,17754,10.0,72718.5,-8.65,-32.39,-32.35,0,*57
1488902682.37,17755,9.94,72716.8,-8.65,-32.29,-32.13,0,*53
1488902683.64,17756,10.0,72720.5,-8.65,-32.69,-33.27,0,*52
1488902684.85,17757,10.0,72722.8,-8.67,-33.03,-33.37,0,*5D
1488902686.08,17758,10.0,72720.3,-8.67,-33.15,-33.49,0,*5C
1488902687.37,17759,10.0,72718.3,-8.69,-33.09,-33.49,0,*5E
1488902688.61,17760,10.0,72718.0,-8.67,-33.03,-33.27,0,*58
1488902689.9,17761,10.0,72718.3,-8.69,-32.19,-31.85,0,*57
1488902691.2,17762,10.0,72720.0,-8.69,-30.95,-30.77,0,*5E
1488902692.44,17763,10.0,72718.5,-8.69,-30.23,-30.67,0,*53
1488902693.7,17764,10.0,72718.5,-8.73,-29.95,-30.51,0,*5F
1488902694.94,17765,10.0,72722.8,-8.71,-31.51,-31.29,0,*53
1488902696.18,17766,10.0,72718.5,-8.71,-31.33,-31.51,0,*5B
1488902697.44,17767,10.0,72722.0,-8.73,-31.17,-31.61,0,*5D
1488902698.71,17768,10.0,72722.3,-8.71,-31.91,-32.19,0,*52
1488902699.94,17769,10.0,72720.3,-8.73,-32.13,-32.23,0,*51
1488902701.2,17770,10.0,72720.0,-8.73,-31.79,-31.91,0,*5C
1488902702.5,17771,10.0,72720.3,-8.73,-32.07,-32.45,0,*5D
1488902703.79,17772,10.0,72720.3,-8.73,-31.61,-31.91,0,*57
1488902705.05,17773,10.0,72718.5,-8.75,-31.91,-31.91,0,*5F
1488902706.34,17774,10.0,72724.8,-8.73,-31.95,-31.95,0,*5E
1488902707.58,17775,10.0,72720.5,-8.75,-31.23,-31.17,0,*5E
1488902708.86,17776,10.0,72720.5,-8.77,-31.45,-31.95,0,*55
1488902710.1,17777,10.0,72720.8,-8.75,-32.07,-32.39,0,*56
1488902711.33,17778,10.0,72724.0,-8.75,-32.29,-32.13,0,*5D
1488902712.6,17779,10.0,72722.0,-8.75,-31.23,-30.89,0,*54
1488902713.81,17780,10.0,72724.5,-8.75,-30.33,-31.01,0,*53
1488902715.1,17781,10.0,72720.0,-8.77,-31.51,-31.51,0,*50
1488902716.36,17782,10.0,72720.5,-8.77,-30.61,-31.05,0,*50
1488902717.66,17783,10.0,72724.0,-8.77,-31.39,-30.89,0,*58
1488902718.89,17784,10.0,72722.8,-8.81,-30.23,-29.57,0,*57
1488902720.15,17785,10.0,72722.8,-8.81,-29.89,-29.23,0,*5D
1488902721.41,17786,10.0,72724.3,-8.81,-29.39,-28.37,0,*51
1488902722.68,17787,10.0,72724.5,-8.77,-28.21,-28.37,0,*51
1488902723.93,17788,10.0,72724.5,-8.77,-29.83,-30.33,0,*5A
1488902725.17,17789,10.0,72722.5,-8.81,-31.01,-30.83,0,*5A
1488902726.43,17790,10.0,72724.0,-8.81,-29.79,-28.91,0,*5E
1488902727.72,17791,10.0,72720.8,-8.81,-29.73,-29.89,0,*5D
1488902728.97,17792,10.0,72720.0,-8.83,-31.57,-31.45,0,*5A
1488902730.23,17793,10.0,72722.5,-8.81,-31.91,-31.45,0,*53
1488902731.5,17794,10.0,72728.8,-8.81,-31.11,-30.83,0,*57
1488902732.75,17795,10.0,72720.5,-8.83,-31.17,-30.77,0,*59
1488902733.99,17796,10.0,72722.5,-8.83,-31.45,-31.11,0,*5C
1488902735.23,17797,10.0,72726.5,-8.83,-32.01,-31.51,0,*5A
1488902736.49,17798,10.0,72724.8,-8.83,-32.07,-31.57,0,*55
1488902737.76,17799,10.0,72722.8,-8.83,-32.07,-31.51,0,*52
1488902739.0,17800,10.0,72720.8,-8.85,-31.57,-31.01,0,*58
1488902740.23,17801,10.0,72722.5,-8.85,-30.95,-30.45,0,*57
1488902741.45,17802,10.0,72720.3,-8.85,-31.33,-31.17,0,*5F
1488902742.67,17803,10.0,72722.0,-8.85,-31.45,-31.17,0,*5F
1488902743.9,17804,10.0,72726.0,-8.85,-31.33,-30.95,0,*52
1488902745.18,17805,10.0,72726.8,-8.87,-31.23,-30.83,0,*57
1488902746.42,17806,10.0,72722.3,-8.87,-31.33,-30.67,0,*5F
1488902747.67,17807,10.0,72726.3,-8.85,-31.45,-30.77,0,*5C
1488902748.9,17808,10.0,72722.5,-8.87,-31.17,-30.11,0,*56
1488902750.14,17809,10.0,72724.8,-8.87,-30.27,-29.79,0,*53
1488902751.38,17810,10.0,72724.5,-8.89,-30.89,-30.33,0,*57
1488902752.61,17811,10.0,72724.0,-8.89,-31.01,-30.55,0,*57
1488902753.87,17812,10.0,72724.8,-8.91,-31.05,-30.77,0,*59
1488902755.08,17813,10.0,72722.5,-8.89,-30.27,-30.11,0,*50
1488902756.29,17814,10.0,72722.0,-8.89,-29.61,-29.95,0,*59
1488902757.53,17815,10.0,72724.8,-8.89,-29.35,-29.45,0,*54
1488902758.8,17816,10.0,72722.8,-8.91,-29.57,-29.35,0,*5D
1488902760.08,17817,10.0,72724.3,-8.91,-29.51,-29.29,0,*57
1488902761.33,17818,10.0,72724.5,-8.91,-28.97,-29.17,0,*5E
1488902762.62,17819,10.0,72724.5,-8.91,-29.17,-29.51,0,*54
1488902763.88,17820,10.0,72724.5,-8.91,-29.89,-30.23,0,*54
1488902765.14,17821,10.0,72724.5,-8.91,-30.17,-30.23,0,*5A
1488902766.42,17822,10.0,72722.5,-8.91,-30.05,-30.17,0,*5D
1488902767.7,17823,10.0,72724.0,-8.91,-30.01,-30.01,0,*5F
1488902768.95,17824,10.0,72724.8,-8.91,-30.01,-29.83,0,*5A
1488902770.19,17825,10.0,72724.3,-8.93,-29.95,-29.39,0,*5D
1488902771.41,17826,10.0,72724.3,-8.93,-29.23,-28.15,0,*5C
1488902772.7,17827,9.94,72720.5,-8.95,-28.21,-27.99,0,*53
1488902773.94,17828,10.0,72724.8,-8.93,-27.71,-27.99,0,*50
1488902775.2,17829,10.0,72722.3,-8.93,-28.21,-28.91,0,*5C
1488902776.46,17830,10.0,72724.3,-8.95,-28.53,-28.75,0,*5D
1488902777.7,17831,10.0,72726.5,-8.93,-28.37,-28.43,0,*5D
1488902778.91,17832,10.0,72726.8,-8.93,-28.37,-27.51,0,*52
1488902780.17,17833,10.0,72728.0,-8.95,-27.71,-26.81,0,*54
1488902781.44,17834,10.0,72726.3,-8.93,-27.39,-26.81,0,*59
1488902782.65,17835,10.0,72724.8,-8.93,-27.03,-26.39,0,*52
1488902783.86,17836,10.0,72726.0,-8.93,-26.23,-26.39,0,*52
1488902785.1,17837,10.0,72726.0,-8.93,-26.17,-27.13,0,*5D
1488902786.34,17838,10.0,72724.8,-8.93,-26.65,-27.83,0,*5E
1488902787.58,17839,10.0,72724.0,-8.93,-27.19,-28.31,0,*53
1488902788.79,17840,10.0,72728.5,-8.93,-27.51,-28.53,0,*55
1488902790.0,17841,10.0,72726.0,-8.93,-27.67,-28.53,0,*51
1488902791.23,17842,10.0,72726.0,-8.95,-27.89,-29.07,0,*54
1488902792.44,17843,10.0,72726.0,-8.93,-27.89,-28.53,0,*53
1488902793.67,17844,10.0,72726.8,-8.95,-27.55,-27.89,0,*5B
1488902794.93,17845,9.94,72724.0,-8.95,-27.39,-27.67,0,*50
1488902796.17,17846,10.0,72724.8,-8.93,-27.39,-27.71,0,*52
1488902797.41,17847,10.0,72726.3,-8.95,-27.71,-28.15,0,*54
1488902798.67,17848,10.0,72724.8,-8.95,-27.99,-28.31,0,*5B
1488902799.93,17849,10.0,72726.8,-8.95,-27.89,-28.05,0,*5C
1488902801.17,17850,10.0,72726.0,-8.95,-27.51,-27.71,0,*5D
1488902802.44,17851,10.0,72726.5,-8.93,-26.97,-27.35,0,*51
1488902803.65,17852,10.0,72724.5,-8.97,-26.45,-26.61,0,*59
1488902804.86,17853,10.0,72726.3,-8.93,-26.39,-26.23,0,*51
1488902806.09,17854,10.0,72726.3,-8.95,-26.49,-26.23,0,*57
1488902807.3,17855,10.0,72724.3,-8.93,-26.39,-25.87,0,*5A
1488902808.59,17856,10.0,72726.8,-8.95,-26.17,-25.81,0,*55
1488902809.84,17857,10.0,72726.3,-8.95,-26.03,-25.65,0,*5B
1488902811.04,17858,10.0,72722.0,-8.97,-26.23,-25.87,0,*58
1488902812.28,17859,10.0,72724.0,-8.97,-26.23,-25.55,0,*56
1488902813.52,17860,10.0,72724.0,-8.97,-26.07,-25.29,0,*51
1488902814.77,17861,10.0,72720.8,-8.95,-26.13,-24.97,0,*53
1488902816.03,17862,10.0,72722.8,-8.95,-25.87,-24.41,0,*55
1488902817.32,17863,10.0,72724.3,-8.95,-25.71,-23.99,0,*5F
1488902818.58,17864,10.0,72724.8,-8.97,-25.55,-23.49,0,*51
1488902819.79,17865,10.0,72726.3,-8.97,-25.19,-22.83,0,*5F
1488902821.03,17866,10.0,72722.8,-8.97,-24.77,-22.17,0,*58
1488902822.24,17867,10.0,72724.5,-8.97,-23.89,-21.39,0,*50
1488902823.51,17868,10.0,72724.8,-8.99,-22.77,-20.29,0,*51
1488902824.77,17869,10.0,72724.8,-8.99,-22.11,-19.41,0,*54
1488902826.05,17870,10.0,72724.0,-8.95,-21.23,-18.55,0,*56
1488902827.33,17871,10.0,72722.8,-8.95,-20.83,-17.93,0,*59
1488902828.59,17872,10.0,72722.5,-8.97,-20.79,-17.59,0,*5B
1488902829.86,17873,10.0,72724.0,-8.99,-20.89,-17.45,0,*56
1488902831.09,17874,10.0,72722.3,-8.97,-20.73,-17.11,0,*5B
1488902832.3,17875,10.0,72724.3,-8.97,-20.63,-16.93,0,*50
1488902833.55,17876,10.0,72720.0,-8.97,-20.15,-16.65,0,*5B
1488902834.78,17877,10.0,72720.3,-8.97,-19.81,-16.37,0,*5A
1488902836.07,17878,10.0,72722.0,-8.95,-19.23,-15.85,0,*55
1488902837.28,17879,10.0,72726.0,-8.97,-18.65,-15.67,0,*59
1488902838.5,17880,10.0,72726.0,-8.97,-18.45,-15.49,0,*51
1488902839.73,17881,10.0,72724.0,-8.97,-18.21,-15.21,0,*5C
1488902840.94,17882,10.0,72726.5,-8.97,-17.87,-15.07,0,*58
1488902842.18,17883,10.0,72724.0,-8.97,-17.21,-14.65,0,*50
1488902843.44,17884,10.0,72726.5,-8.95,-16.31,-14.33,0,*56
1488902844.69,17885,10.0,72724.5,-8.95,-15.43,-14.11,0,*51
1488902845.96,17886,10.0,72724.8,-8.95,-15.01,-13.83,0,*58
1488902847.2,17887,10.0,72724.8,-8.95,-14.61,-13.55,0,*55
1488902848.46,17888,10.0,72724.3,-8.95,-14.15,-13.29,0,*52
1488902849.73,17889,10.0,72726.0,-8.95,-13.87,-12.89,0,*54
1488902850.98,17890,10.0,72726.5,-8.95,-13.47,-12.61,0,*56
1488902852.2,17891,10.0,72726.0,-8.93,-13.23,-12.25,0,*53
1488902853.47,17892,10.0,72728.0,-8.95,-12.83,-12.15,0,*5E
1488902854.76,17893,10.0,72728.3,-8.95,-12.57,-12.15,0,*56
1488902856.02,17894,10.0,72726.3,-8.95,-12.29,-12.15,0,*58
1488902857.24,17895,9.94,72724.3,-8.93,-12.29,-12.29,0,*50
1488902858.45,17896,10.0,72730.3,-8.93,-12.29,-12.29,0,*53
1488902859.69,17897,10.0,72726.8,-8.93,-12.15,-12.29,0,*5D
1488902860.9,17898,10.0,72724.3,-8.93,-12.03,-12.39,0,*54
1488902862.14,17899,10.0,72726.5,-8.93,-11.89,-12.39,0,*54
1488902863.38,17900,10.0,72726.8,-8.93,-11.89,-12.29,0,*54
1488902864.66,17901,10.0,72724.5,-8.91,-11.73,-12.35,0,*5F
1488902865.92,17902,10.0,72724.3,-8.91,-11.67,-12.39,0,*55
1488902867.21,17903,10.0,72724.8,-8.91,-11.59,-12.35,0,*55
1488902868.47,17904,10.0,72726.8,-8.91,-11.67,-12.39,0,*53
1488902869.72,17905,10.0,72728.5,-8.91,-11.51,-12.39,0,*57
1488902870.98,17906,10.0,72728.0,-8.91,-11.51,-12.39,0,*54
1488902872.21,17907,10.0,72724.0,-8.89,-11.51,-12.47,0,*55
1488902873.47,17908,10.0,72726.8,-8.89,-11.63,-12.61,0,*5F
1488902874.74,17909,10.0,72726.5,-8.89,-11.67,-12.79,0,*53
1488902876.02,17910,10.0,72726.8,-8.91,-11.67,-12.79,0,*52
1488902877.26,17911,10.0,72724.3,-8.89,-11.81,-12.89,0,*5D
1488902878.47,17912,10.0,72728.5,-8.89,-12.03,-12.93,0,*5C
1488902879.74,17913,10.0,72728.0,-8.87,-11.93,-12.93,0,*59
1488902880.95,17914,10.0,72724.0,-8.85,-12.03,-12.93,0,*56
1488902882.21,17915,10.0,72728.0,-8.87,-12.07,-12.89,0,*5A
1488902883.48,17916,10.0,72726.3,-8.87,-12.07,-12.89,0,*59
1488902884.74,17917,10.0,72728.3,-8.85,-12.11,-13.01,0,*5C
1488902885.95,17918,10.0,72726.8,-8.85,-12.29,-13.15,0,*5D
1488902887.16,17919,10.0,72728.0,-8.85,-12.25,-12.97,0,*5B
1488902888.38,17920,10.0,72726.5,-8.85,-12.29,-12.89,0,*52
1488902889.64,17921,10.0,72728.3,-8.85,-12.15,-12.61,0,*5A
1488902890.91,17922,10.0,72728.0,-8.87,-12.21,-12.61,0,*5C
1488902892.14,17923,10.0,72726.8,-8.85,-12.03,-12.57,0,*5A
1488902893.38,17924,10.0,72726.5,-8.85,-11.97,-12.43,0,*56
1488902894.64,17925,10.0,72728.5,-8.85,-11.77,-12.15,0,*5A
1488902895.89,17926,10.0,72726.8,-8.85,-11.77,-12.15,0,*59
1488902897.14,17927,10.0,72730.0,-8.85,-11.63,-12.03,0,*5A
1488902898.4,17928,10.0,72724.0,-8.85,-11.59,-11.89,0,*5D
1488902899.67,17929,10.0,72728.0,-8.85,-11.63,-11.89,0,*55
1488902900.93,17930,10.0,72730.0,-8.83,-11.59,-11.73,0,*57
1488902902.16,17931,10.0,72728.8,-8.83,-11.51,-11.45,0,*5B
1488902903.38,17932,10.0,72728.3,-8.83,-11.41,-11.45,0,*59
1488902904.61,17933,10.0,72726.3,-8.83,-11.33,-11.45,0,*5D
1488902905.85,17934,9.94,72726.0,-8.83,-11.33,-11.41,0,*5E